BAW104 EGLL-BIKF

Flight info

Callsign BAW104
Flight time N/A
Altitude 40000
Route ULTIB T420 TNT UN57 POL UN601 RIBEL DCT ORSUM DCT
Aircraft B744/H-VGD/A

Departure

Time 2026-04-30 11:54
Airport London Heathrow Airport (EGLL)

Arrival

Time N/A
Airport Keflavik International Airport (BIKF)
Time Latitude Longitude Altitude Speed Heading
2026-04-30 11:13 51.47117 -0.47720 96 ft 0 kts 90°
2026-04-30 11:14 51.47103 -0.47720 96 ft 0 kts 90°
2026-04-30 11:14 51.47089 -0.47720 96 ft 7 kts 90°
2026-04-30 11:14 51.47050 -0.47720 96 ft 0 kts 90°
2026-04-30 11:15 51.47049 -0.47720 96 ft 0 kts 90°
2026-04-30 11:46 51.47049 -0.47727 96 ft 2 kts 90°
2026-04-30 11:46 51.47049 -0.47752 96 ft 2 kts 89°
2026-04-30 11:46 51.47049 -0.47778 96 ft 1 kts 89°
2026-04-30 11:46 51.47048 -0.47804 96 ft 1 kts 89°
2026-04-30 11:47 51.47048 -0.47828 96 ft 1 kts 98°
2026-04-30 11:47 51.47050 -0.47849 96 ft 1 kts 120°
2026-04-30 11:47 51.47056 -0.47865 96 ft 1 kts 147°
2026-04-30 11:47 51.47067 -0.47875 96 ft 0 kts 169°
2026-04-30 11:48 51.47083 -0.47878 96 ft 0 kts 179°
2026-04-30 11:48 51.47094 -0.47878 96 ft 0 kts 179°
2026-04-30 11:49 51.47078 -0.47878 96 ft 11 kts 179°
2026-04-30 11:50 51.46951 -0.47877 97 ft 20 kts 179°
2026-04-30 11:50 51.46818 -0.47876 97 ft 19 kts 179°
2026-04-30 11:50 51.46692 -0.47874 97 ft 18 kts 179°
2026-04-30 11:50 51.46623 -0.47929 96 ft 7 kts 271°
2026-04-30 11:51 51.46623 -0.48001 96 ft 6 kts 271°
2026-04-30 11:51 51.46624 -0.48082 96 ft 6 kts 271°
2026-04-30 11:51 51.46623 -0.48149 96 ft 6 kts 257°
2026-04-30 11:51 51.46593 -0.48187 96 ft 6 kts 179°
2026-04-30 11:52 51.46580 -0.48187 96 ft 0 kts 180°
2026-04-30 11:53 51.46528 -0.48187 97 ft 17 kts 180°
2026-04-30 11:53 51.46478 -0.48156 96 ft 3 kts 102°
2026-04-30 11:53 51.46479 -0.48123 96 ft 3 kts 88°
2026-04-30 11:53 51.46480 -0.48091 96 ft 3 kts 89°
2026-04-30 11:54 51.46482 -0.47794 97 ft 64 kts 90°
2026-04-30 11:54 51.46486 -0.46643 97 ft 140 kts 90°
2026-04-30 11:54 51.46492 -0.44842 385 ft 175 kts 90°
2026-04-30 11:54 51.46545 -0.42895 1209 ft 178 kts 83°
2026-04-30 11:55 51.46830 -0.41666 1945 ft 168 kts 68°
2026-04-30 11:56 51.47210 -0.40744 2551 ft 168 kts 60°
2026-04-30 11:56 51.48002 -0.39280 3209 ft 185 kts 56°
2026-04-30 11:56 51.48925 -0.37646 3700 ft 212 kts 54°
2026-04-30 11:56 51.50010 -0.35768 4110 ft 244 kts 54°
2026-04-30 11:57 51.51038 -0.33486 4588 ft 261 kts 64°
2026-04-30 11:57 51.51852 -0.30907 5421 ft 260 kts 71°
2026-04-30 11:57 51.52531 -0.28217 5842 ft 258 kts 74°
2026-04-30 11:57 51.53169 -0.25524 6003 ft 259 kts 75°
2026-04-30 11:58 51.53802 -0.22807 6025 ft 259 kts 75°
2026-04-30 11:58 51.54545 -0.20176 5983 ft 264 kts 63°
2026-04-30 11:58 51.55916 -0.18171 6005 ft 275 kts 36°
2026-04-30 11:58 51.57785 -0.17283 5977 ft 287 kts 10°
2026-04-30 11:59 51.59768 -0.17767 5999 ft 293 kts 343°
2026-04-30 11:59 51.61496 -0.19537 6020 ft 300 kts 316°
2026-04-30 11:59 51.62748 -0.22272 6047 ft 307 kts 302°
2026-04-30 11:59 51.64026 -0.25043 5918 ft 307 kts 310°
2026-04-30 12:00 51.65474 -0.27475 6010 ft 301 kts 317°
2026-04-30 12:00 51.67158 -0.29529 6005 ft 303 kts 328°
2026-04-30 12:00 51.68959 -0.31211 6014 ft 305 kts 333°
2026-04-30 12:00 51.70826 -0.32784 5998 ft 301 kts 334°
2026-04-30 12:01 51.72671 -0.34358 5999 ft 300 kts 334°
2026-04-30 12:01 51.74522 -0.36030 6015 ft 303 kts 332°
2026-04-30 12:01 51.76322 -0.37748 5987 ft 305 kts 330°
2026-04-30 12:01 51.78134 -0.39501 6001 ft 303 kts 330°
2026-04-30 12:02 51.79937 -0.41252 5998 ft 302 kts 330°
2026-04-30 12:02 51.81745 -0.43004 6007 ft 302 kts 331°
2026-04-30 12:02 51.83551 -0.44761 6022 ft 303 kts 330°
2026-04-30 12:02 51.85356 -0.46523 6474 ft 308 kts 330°
2026-04-30 12:03 51.87191 -0.48317 7741 ft 302 kts 330°
2026-04-30 12:03 51.90810 -0.51870 9826 ft 309 kts 330°
2026-04-30 12:03 51.92649 -0.53675 10864 ft 309 kts 330°
2026-04-30 12:04 51.94530 -0.55515 11530 ft 325 kts 330°
2026-04-30 12:04 51.96551 -0.57463 11847 ft 353 kts 330°
2026-04-30 12:04 51.98739 -0.59589 12073 ft 384 kts 330°
2026-04-30 12:04 52.01078 -0.61878 12592 ft 403 kts 330°
2026-04-30 12:05 52.02705 -0.63474 13182 ft 408 kts 329°
2026-04-30 12:06 52.04485 -0.65222 13868 ft 416 kts 329°
2026-04-30 12:06 52.06156 -0.66865 14518 ft 419 kts 329°
2026-04-30 12:06 52.08674 -0.69339 15538 ft 424 kts 329°
2026-04-30 12:06 52.11217 -0.71837 16467 ft 431 kts 329°
2026-04-30 12:07 52.13794 -0.74373 17326 ft 439 kts 329°
2026-04-30 12:07 52.16445 -0.76992 18216 ft 445 kts 328°
2026-04-30 12:07 52.19100 -0.79627 19145 ft 448 kts 328°
2026-04-30 12:07 52.21780 -0.82291 20012 ft 453 kts 328°
2026-04-30 12:08 52.24498 -0.84995 20861 ft 458 kts 328°
2026-04-30 12:08 52.27201 -0.87647 21672 ft 462 kts 329°
2026-04-30 12:08 52.29969 -0.90374 22479 ft 466 kts 329°
2026-04-30 12:08 52.32781 -0.93166 23259 ft 470 kts 329°
2026-04-30 12:09 52.35556 -0.95934 23996 ft 474 kts 329°
2026-04-30 12:09 52.38389 -0.98767 24691 ft 479 kts 328°
2026-04-30 12:09 52.39361 -0.99739 24915 ft 481 kts 328°
2026-04-30 12:09 52.42227 -1.02610 25563 ft 486 kts 328°